Regional Weather Roundup
Issued by NWS

Home | Current Version | Previous Version | Graphics & Text | Print | Product List | Glossary On
Versions: 1 2 3 4 5 6 7 8 9 10 11 12 13 14 15 16 17 18 19 20 21 22 23 24 25 26 27 28 29 30 31 32 33 34 35 36 37 38 39 40 41 42 43 44 45 46 47 48 49 50
000
ASUS45 KPSR 060910
RWRAZ

ARIZONA HOURLY REGIONAL WEATHER ROUNDUP
NATIONAL WEATHER SERVICE PHOENIX AZ
200 AM MST MON JUL 06 2015

NOTE: FAIR INDICATES FEW OR NO CLOUDS BELOW 12,000 FEET WITH NO
SIGNIFICANT WEATHER AND/OR OBSTRUCTIONS TO VISIBILITY.

AZZ001>003-036-061000-
NORTHWEST ARIZONA

CITY           SKY/WX    TMP DP  RH WIND       PRES   REMARKS
BULLHEAD CITY  PTCLDY    86  64  48 CALM      29.89R
KINGMAN        LGT RAIN  72  60  66 SE14      30.07R
$$

AZZ004>008-015-016-018-061000-
NORTH CENTRAL ARIZONA

CITY           SKY/WX    TMP DP  RH WIND       PRES   REMARKS
GRAND CANYON   CLOUDY    59  54  83 S3        30.30R
WILLIAMS       CLOUDY    57  54  88 VRB7G13   30.37S
PRESCOTT       CLOUDY    65  58  78 CALM      30.23R
FLAGSTAFF      CLOUDY    56  54  93 CALM      30.31F
PAYSON         CLOUDY    66  57  72 CALM      30.21S
PAGE           MOCLDY    78  48  34 CALM      30.07R
$$

AZZ009>014-017-061000-
NORTHEAST ARIZONA

CITY           SKY/WX    TMP DP  RH WIND       PRES   REMARKS
WINSLOW        CLOUDY    67  58  72 SE3       30.15S
SAINT JOHNS    MOCLDY    65  57  75 CALM      30.19F
WINDOW ROCK    MOCLDY    59  55  87 SW5       30.26F
SHOW LOW       CLOUDY    57  54  88 S5        30.27F
$$

AZZ023-061000-
GREATER PHOENIX AREA

CITY           SKY/WX    TMP DP  RH WIND       PRES   REMARKS
PHOENIX        MOCLDY    85  65  51 SE5       29.93S
BUCKEYE        MOCLDY    82  66  57 E12       29.93S
LUKE AFB       CLOUDY    86  63  45 NE3       29.93S
DEER VALLEY    CLOUDY    83  64  52 CALM      29.95S
SCOTTSDALE     CLOUDY    83  64  52 SE3       29.97F
MESA-GATEWAY   PTCLDY    79  68  69 SE6       29.98S
$$

AZZ027-028-061000-
SOUTHWEST MARICOPA COUNTY AND PINAL COUNTY

CITY           SKY/WX    TMP DP  RH WIND       PRES   REMARKS
CASA GRANDE    PTCLDY    75  70  83 CALM      29.96R
GILA BEND      FAIR      85  63  47 NE6       29.91R
$$

AZZ503-504-507>509-061000-
SOUTHEAST ARIZONA

CITY           SKY/WX    TMP DP  RH WIND       PRES   REMARKS
TUCSON         PTCLDY    77  64  64 E6        30.04S
DAVIS-MONTHAN  CLEAR     75  67  75 E5        30.03S
NOGALES        CLEAR     68  62  81 CALM      30.12F
SIERRA VISTA   PTCLDY    67  60  79 E5        30.17S
DOUGLAS        PTCLDY    67  64  90 E6        30.13S
SAFFORD        PTCLDY    70  68  93 CALM      30.04F
$$

AZZ020-021-025-026-031-061000-
SOUTHWEST ARIZONA

CITY           SKY/WX    TMP DP  RH WIND       PRES   REMARKS
YUMA           CLEAR     87  62  43 SE9       29.83F
$$

CAZ031-033-041-043-047-048-061-061000-
SOUTHERN CALIFORNIA

CITY           SKY/WX    TMP DP  RH WIND       PRES   REMARKS
DOWNTOWN L.A.  CLOUDY    66  59  78 CALM      30.02R
L.A. AIRPORT   CLOUDY    64  59  83 SW5       30.03R
SAN DIEGO      CLOUDY    67  58  72 NW7       30.03S
BURBANK        CLOUDY    64  58  80 S5        30.02R
ONTARIO        CLOUDY    65  59  81 W7        30.02R
RIVERSIDE      CLOUDY    65  59  81 W6        30.02S
PALM SPRINGS   CLEAR     82  59  45 S3        29.89S
EL CENTRO NAS  CLEAR     80  64  58 E7        29.83R
IMPERIAL       CLEAR     83  68  60 SE8       29.80S
BLYTHE         CLEAR     88  53  30 S8        29.86R
NEEDLES        PTCLDY    89  59  36 E5        29.88R
$$

NVZ020-UTZ003-061000-
SOUTHERN NEVADA-UTAH

CITY           SKY/WX    TMP DP  RH WIND       PRES   REMARKS
LAS VEGAS      CLOUDY    85  53  33 SW12      29.90S
SALT LAKE CITY CLEAR     70  63  78 CALM      30.05R
$$

NMZ009-TXZ055-061000-
NEW MEXICO-WEST TEXAS

CITY           SKY/WX    TMP DP  RH WIND       PRES   REMARKS
ALBUQUERQUE    CLOUDY    68  61  78 E6        30.15F
EL PASO        CLOUDY    79  58  48 W8        30.03F
$$


........................KEY........................
SKY/WX - SKY CONDITION/WEATHER
TMP    - TEMPERATURE IN FAHRENHEIT
DP     - DEW POINT IN FAHRENHEIT
RH     - RELATIVE HUMIDITY IN PERCENT
WIND   - DIRECTION AND SPEED IN MILES PER HOUR (MPH)
VRB    - VARIABLE WIND DIRECTION
PRES   - MEAN SEA LEVEL PRESSURE IN INCHES OF MERCURY
         F - FALLING PRESSURE   R - RISING PRESSURE
         S - STEADY PRESSURE
VSB    - VISIBILITY IN MILES
HX     - HEAT INDEX IN FAHRENHEIT
WCI    - WIND CHILL INDEX IN FAHRENHEIT
TC     - TEMPERATURE IN CELSIUS WHICH IS ALSO KNOWN AS
         TEMPERATURE IN CENTIGRADE
AFB    - AIR FORCE BASE
         LUKE AFB IS LUKE AIR FORCE BASE
         DAVIS-MONTHAN IS DAVIS-MONTHAN AIR FORCE BASE
NAS    - NAVAL AIR STATION
         EL CENTRO NAS IS EL CENTRO NAVAL AIR STATION
N/A    - NOT AVAILABLE




USA.gov is the U.S. government's official web portal to all federal, state and local government web resources and services.